sat.trackr.live / text

‹ back to catalog

STARLINK-37963

NORAD 69709 · 2026-147F

PAYLOAD ACTIVE UNKNOWN

§ Identity

Operator
Country
US
Launch date
2026-06-28
Launch site
AFWTR
Launch vehicle
Mass (kg)
RCS (m²)

Purposes: comms

External: N2YO · Heavens-Above · Gunter

§ Orbital elements

Epoch: 2026-09-20T01:27:16.488864Z

Period
93.91 min
Inclination
97.2837°
Eccentricity
0.0000694
Mean motion
15.33450871 rev/d
Perigee alt
465.1 km
Apogee alt
466.0 km
Semi-major
6,843.7 km
B*
4.8355e-4
RAAN
299.3827°
Arg perigee
89.9105°
Mean anomaly
270.2217°
Rev number
1,416

§ Raw data

STARLINK-379631 69709U 26147F   26263.06060751  .00015571  00000+0  48355-3 0  99912 69709  97.2837 299.3827 0000694  89.9105 270.2217 15.33450871 14160

JSON: /api/v1/satellites/69709 · /tle

For live sub-satellite position, see the globe view (requires WebGL).

§ Visibility from observer

Set your observer location to see the next 7 days of passes ≥ 10°. The values pass through the URL so the page stays shareable.

No JS? Fill the form by hand. The geolocation button needs JavaScript.